Portada
METAR-TAF:

METAR-TAF

Aeropuertos :

Council Bluffs, Iowa, Estados Unidos

latitud: 41-16N, longitud: 095-46W, altitud: 382 m

Observación

El informe se hizo hace 11 minutos, a las 00:15 UTC
Viento 4 kt del norte
Temperatura 23°C
Humedad 61%
Presión 1021 hPa
Visibilidad: 14.5 km
Cielo despejado

METAR: KCBF 020015Z AUTO 01004KT 9SM CLR 23/15 A3015 RMK AO2

Hora: 19:26 (00:26 UTC)


TAF: falta

Observaciones y pronósticos meteorológicos de más de 4000 aeropuertos (mensajes METAR y TAF).

Los puntos amarillos y rojos representan las estaciones disponibles.

Ponga el ratón en el punto deseado para ver el nombre de la estación.

Haga clic para ver las observaciones y los pronósticos meteorológicos.

Para cambiar el mapa : haga clic en los botones verdes con una cruz de color negro para hacer un zoom, en el botón verde con un guión para alejar o en las flechas verdes para mapas adyacentes.


METAR-TAF: